User: anonymous   Login
Location: Unspecified
(0.0000°N, 0.0000°E)
Time: 19:31:17
(UTC+00:00)
Language:

MUOS 4 - Orbit

View from above orbital plane
View from above orbital plane
View from above satellite
View from above satellite

Ground track
Ground track

The orbit data is extracted from the following two-line orbital elements,

1 40887U 15044A   19082.89077316 -.00000117 +00000-0 +00000-0 0  9992
2 40887 003.4888 335.6277 0058026 001.9005 239.1674 01.00271766013072
Epoch (UTC): 23 March 2019 21:22:42
Eccentricity: 0.0058026
inclination: 3.4888°
perigee height: 35541 km
apogee height: 36031 km
right ascension of ascending node: 335.6277°
argument of perigee: 1.9005°
revolutions per day: 1.00271766
mean anomaly at epoch: 239.1674°
orbit number at epoch: 1307

The dashed part of the orbit path shows where the satellite is in the earth's shadow,  

DLR